| time (UTC) | temp F | wind direction | speed MPH | gust MPH | rain 1hr in | rain 24hr in | rain mn in | humidity % | barometer mb |
| 20260905083041 | 52 | 31 | 0.0 | 0.0 | 0.00 | 0.00 | 0.00 | 86 | 1013.3 |
| 20260905081540 | 53 | 31 | 0.0 | 0.0 | 0.00 | 0.00 | 0.00 | 86 | 1013.3 |
| 20260905080040 | 53 | 31 | 0.0 | 0.0 | 0.00 | 0.00 | 0.00 | 85 | 1013.3 |
| 20260905074542 | 53 | 31 | 0.0 | 0.0 | 0.00 | 0.00 | 0.00 | 85 | 1013.3 |
| 20260905073054 | 53 | 31 | 0.0 | 0.0 | 0.00 | 0.00 | 0.00 | 84 | 1013.3 |
| 20260905071542 | 54 | 31 | 0.0 | 0.0 | 0.00 | 0.00 | 0.00 | 84 | 1013.2 |
| 20260905070031 | 54 | 31 | 0.0 | 0.0 | 0.00 | 0.00 | 0.00 | 84 | 1013.2 |
| 20260905064531 | 55 | 31 | 0.0 | 0.0 | 0.00 | 0.00 | 0.00 | 84 | 1013.3 |
| 20260905063031 | 55 | 31 | 0.0 | 0.0 | 0.00 | 0.00 | 0.00 | 83 | 1013.2 |
| 20260905061532 | 55 | 31 | 0.0 | 0.0 | 0.00 | 0.00 | 0.00 | 83 | 1013.1 |
| 20260905060036 | 56 | 31 | 0.0 | 0.0 | 0.00 | 0.00 | 0.00 | 82 | 1013.2 |
| 20260905054540 | 56 | 31 | 0.0 | 0.0 | 0.00 | 0.00 | 0.00 | 82 | 1013.2 |
| 20260905053029 | 57 | 31 | 0.0 | 0.0 | 0.00 | 0.00 | 0.00 | 82 | 1013.3 |
| 20260905051527 | 57 | 31 | 0.0 | 0.0 | 0.00 | 0.00 | 0.00 | 81 | 1013.2 |
| 20260905050028 | 58 | 31 | 0.0 | 0.0 | 0.00 | 0.00 | 0.00 | 80 | 1013.4 |
| 20260905044527 | 58 | 31 | 0.0 | 0.0 | 0.00 | 0.00 | 0.00 | 79 | 1013.4 |
| 20260905043028 | 59 | 31 | 0.0 | 0.0 | 0.00 | 0.00 | 0.00 | 77 | 1013.1 |
| 20260905041526 | 59 | 31 | 0.0 | 0.0 | 0.00 | 0.00 | 0.00 | 77 | 1012.9 |
| 20260905040025 | 60 | 31 | 0.0 | 0.0 | 0.00 | 0.00 | 0.00 | 74 | 1012.7 |
| 20260905034524 | 61 | 31 | 0.0 | 0.0 | 0.00 | 0.00 | 0.00 | 72 | 1012.5 |
| 20260905033028 | 62 | 31 | 0.0 | 0.0 | 0.00 | 0.00 | 0.00 | 70 | 1012.4 |
| 20260905031524 | 64 | 31 | 0.0 | 0.0 | 0.00 | 0.00 | 0.00 | 68 | 1012.2 |
| 20260905030023 | 65 | 31 | 0.0 | 0.0 | 0.00 | 0.00 | 0.00 | 67 | 1012.1 |
| 20260905024522 | 66 | 31 | 0.0 | 0.0 | 0.00 | 0.00 | 0.00 | 65 | 1012.0 |
| 20260905023023 | 68 | 31 | 0.0 | 0.0 | 0.00 | 0.00 | 0.00 | 62 | 1012.0 |
| 20260905021522 | 68 | 31 | 0.0 | 0.0 | 0.00 | 0.00 | 0.00 | 60 | 1011.8 |
| 20260905020026 | 69 | 31 | 0.0 | 0.0 | 0.00 | 0.00 | 0.00 | 59 | 1011.9 |
| 20260905014520 | 70 | 31 | 0.0 | 1.0 | 0.00 | 0.00 | 0.00 | 57 | 1011.8 |
| 20260905013020 | 71 | 31 | 0.0 | 1.0 | 0.00 | 0.00 | 0.00 | 57 | 1011.8 |
| 20260905011520 | 71 | 32 | 0.0 | 3.0 | 0.00 | 0.00 | 0.00 | 55 | 1011.8 |
| 20260905010019 | 72 | 25 | 0.0 | 2.0 | 0.00 | 0.00 | 0.00 | 55 | 1011.5 |
| 20260905004518 | 72 | 22 | 0.0 | 2.0 | 0.00 | 0.00 | 0.00 | 54 | 1011.4 |
| 20260905003018 | 72 | 73 | 0.0 | 3.0 | 0.00 | 0.00 | 0.00 | 53 | 1011.4 |
| 20260905001518 | 73 | 15 | 0.0 | 5.0 | 0.00 | 0.00 | 0.00 | 53 | 1011.4 |
| 20260905000016 | 73 | 19 | 1.0 | 6.0 | 0.00 | 0.00 | 0.00 | 51 | 1011.4 |
| 20260904234517 | 74 | 328 | 0.0 | 4.0 | 0.00 | 0.00 | 0.00 | 51 | 1011.5 |
| 20260904233015 | 74 | 355 | 1.0 | 5.0 | 0.00 | 0.00 | 0.00 | 49 | 1011.5 |
| 20260904231515 | 74 | 325 | 0.0 | 4.0 | 0.00 | 0.00 | 0.00 | 49 | 1011.3 |
| 20260904230014 | 74 | 326 | 0.0 | 4.0 | 0.00 | 0.00 | 0.00 | 49 | 1011.4 |
| 20260904224513 | 75 | 320 | 0.0 | 4.0 | 0.00 | 0.00 | 0.00 | 48 | 1011.5 |
| 20260904223016 | 75 | 42 | 0.0 | 3.0 | 0.00 | 0.00 | 0.00 | 45 | 1011.5 |
| 20260904221512 | 76 | 325 | 0.0 | 2.0 | 0.00 | 0.00 | 0.00 | 47 | 1011.5 |
| 20260904220011 | 76 | 325 | 0.0 | 1.0 | 0.00 | 0.00 | 0.00 | 44 | 1011.5 |
| 20260904214509 | 76 | 325 | 0.0 | 1.0 | 0.00 | 0.00 | 0.00 | 44 | 1011.7 |
| 20260904213012 | 76 | 327 | 0.0 | 3.0 | 0.00 | 0.00 | 0.00 | 45 | 1011.7 |
| 20260904211513 | 76 | 34 | 0.0 | 5.0 | 0.00 | 0.00 | 0.00 | 45 | 1011.8 |
| 20260904210016 | 75 | 90 | 0.0 | 1.0 | 0.00 | 0.00 | 0.00 | 43 | 1011.8 |
| 20260904204503 | 75 | 94 | 0.0 | 1.0 | 0.00 | 0.00 | 0.00 | 42 | 1011.7 |
| 20260904203100 | 74 | 94 | 0.0 | 4.0 | 0.00 | 0.00 | 0.00 | 43 | 1011.9 |
| 20260904201626 | 73 | 318 | 0.0 | 3.0 | 0.00 | 0.00 | 0.00 | 50 | 1011.9 |
| 20260904200056 | 72 | 37 | 0.0 | 2.0 | 0.00 | 0.00 | 0.00 | 50 | 1012.0 |
| 20260904194603 | 71 | 31 | 0.0 | 1.0 | 0.00 | 0.00 | 0.00 | 54 | 1012.2 |
| 20260904193048 | 70 | 31 | 0.0 | 4.0 | 0.00 | 0.00 | 0.00 | 56 | 1012.3 |
| 20260904191544 | 69 | 49 | 0.0 | 1.0 | 0.00 | 0.00 | 0.00 | 63 | 1012.6 |
| 20260904190040 | 68 | 49 | 0.0 | 1.0 | 0.00 | 0.00 | 0.00 | 67 | 1012.7 |
| 20260904184535 | 66 | 49 | 0.0 | 1.0 | 0.00 | 0.00 | 0.00 | 71 | 1012.8 |
| 20260904183031 | 64 | 49 | 0.0 | 2.0 | 0.00 | 0.00 | 0.00 | 80 | 1013.0 |
| 20260904181528 | 63 | 49 | 0.0 | 1.0 | 0.00 | 0.00 | 0.00 | 81 | 1012.9 |
| 20260904180024 | 61 | 49 | 0.0 | 2.0 | 0.00 | 0.00 | 0.00 | 84 | 1013.1 |
| 20260904174527 | 60 | 48 | 0.0 | 0.0 | 0.00 | 0.01 | 0.00 | 86 | 1013.1 |
| 20260904173017 | 59 | 48 | 0.0 | 0.0 | 0.00 | 0.01 | 0.00 | 86 | 1013.0 |
| 20260904171519 | 58 | 46 | 0.0 | 0.0 | 0.00 | 0.01 | 0.00 | 85 | 1013.0 |
| 20260904170010 | 57 | 46 | 0.0 | 0.0 | 0.00 | 0.01 | 0.00 | 82 | 1013.0 |
| 20260904164511 | 55 | 46 | 0.0 | 1.0 | 0.00 | 0.05 | 0.00 | 80 | 1013.0 |
| 20260904163009 | 54 | 46 | 0.0 | 0.0 | 0.00 | 0.05 | 0.00 | 79 | 1013.0 |
| 20260904161509 | 53 | 46 | 0.0 | 0.0 | 0.00 | 0.05 | 0.00 | 79 | 1013.0 |
| 20260904160008 | 52 | 46 | 0.0 | 0.0 | 0.00 | 0.05 | 0.00 | 81 | 1013.0 |
| 20260904154507 | 51 | 46 | 0.0 | 0.0 | 0.00 | 0.09 | 0.00 | 83 | 1013.1 |
| 20260904153017 | 50 | 46 | 0.0 | 0.0 | 0.00 | 0.09 | 0.00 | 84 | 1013.1 |
| 20260904151505 | 50 | 46 | 0.0 | 0.0 | 0.00 | 0.09 | 0.00 | 84 | 1012.9 |
| 20260904150011 | 50 | 46 | 0.0 | 0.0 | 0.00 | 0.09 | 0.00 | 84 | 1013.0 |
| 20260904144502 | 50 | 46 | 0.0 | 0.0 | 0.00 | 0.10 | 0.00 | 84 | 1012.7 |
| 20260904143108 | 50 | 46 | 0.0 | 0.0 | 0.00 | 0.10 | 0.00 | 84 | 1012.6 |
| 20260904141612 | 49 | 46 | 0.0 | 0.0 | 0.00 | 0.10 | 0.00 | 85 | 1012.4 |
| 20260904140057 | 49 | 46 | 0.0 | 0.0 | 0.00 | 0.10 | 0.00 | 85 | 1012.3 |
| 20260904134558 | 48 | 46 | 0.0 | 0.0 | 0.00 | 0.11 | 0.00 | 86 | 1012.0 |
| 20260904133052 | 48 | 46 | 0.0 | 0.0 | 0.00 | 0.11 | 0.00 | 86 | 1011.9 |
| 20260904131550 | 49 | 46 | 0.0 | 0.0 | 0.00 | 0.11 | 0.00 | 86 | 1011.7 |
| 20260904130048 | 49 | 46 | 0.0 | 0.0 | 0.00 | 0.11 | 0.00 | 86 | 1011.4 |
| 20260904124545 | 49 | 46 | 0.0 | 0.0 | 0.00 | 0.12 | 0.00 | 86 | 1011.3 |
| 20260904123043 | 50 | 46 | 0.0 | 0.0 | 0.00 | 0.12 | 0.00 | 86 | 1011.2 |
| 20260904121542 | 50 | 46 | 0.0 | 0.0 | 0.00 | 0.12 | 0.00 | 86 | 1011.2 |
| 20260904120040 | 50 | 46 | 0.0 | 0.0 | 0.00 | 0.12 | 0.00 | 86 | 1011.2 |
| 20260904114541 | 51 | 46 | 0.0 | 0.0 | 0.00 | 0.12 | 0.00 | 86 | 1011.1 |
| 20260904113037 | 51 | 46 | 0.0 | 0.0 | 0.00 | 0.12 | 0.00 | 86 | 1011.0 |
| 20260904111536 | 51 | 46 | 0.0 | 0.0 | 0.00 | 0.12 | 0.00 | 86 | 1011.1 |
| 20260904110033 | 51 | 46 | 0.0 | 0.0 | 0.00 | 0.12 | 0.00 | 86 | 1011.1 |
| 20260904104532 | 52 | 46 | 0.0 | 0.0 | 0.00 | 0.12 | 0.00 | 86 | 1011.1 |
| 20260904103031 | 52 | 46 | 0.0 | 0.0 | 0.00 | 0.12 | 0.00 | 86 | 1011.0 |
| 20260904101532 | 52 | 46 | 0.0 | 0.0 | 0.00 | 0.12 | 0.00 | 85 | 1010.9 |
| 20260904100028 | 52 | 46 | 0.0 | 0.0 | 0.00 | 0.12 | 0.00 | 86 | 1010.9 |
| 20260904094535 | 53 | 46 | 0.0 | 0.0 | 0.00 | 0.12 | 0.00 | 86 | 1010.7 |
| 20260904093025 | 53 | 46 | 0.0 | 0.0 | 0.00 | 0.12 | 0.00 | 86 | 1010.7 |
| 20260904091524 | 53 | 46 | 0.0 | 0.0 | 0.00 | 0.12 | 0.00 | 86 | 1010.7 |
| 20260904090022 | 54 | 46 | 0.0 | 0.0 | 0.00 | 0.12 | 0.00 | 86 | 1010.6 |
| 20260904084521 | 54 | 46 | 0.0 | 0.0 | 0.00 | 0.12 | 0.00 | 86 | 1010.7 |